STARLINK-34688

Last updated on Mon Oct 20 2025 00:02:07 GMT+0000 (Coordinated Universal Time)

1 65875U 25223X 25292.25002315 -.01903501 00000+0 -21749-1 0 9997 2 65875 53.1598 234.9299 0001269 91.3585 40.4043 15.64688465 3732
UTC large
Height (km)
Speed (km/s)
/
Latitude / Longitude
Inclination (degrees)
Orbital Period (minutes)
Azimuth
Elevation
Range (km)
Doppler Factor

Next 0 passes for location: London (51.5072 / 0.1276)

Sorry there are no passes over London.